Weather History for Cocoa Beach, FL

Change the Weather History Date:

Friday, July 4, 2014

  Actual Average Record
Temperature  
Mean Temperature 82 °F -  
Max Temperature 93 °F 85 °F 93 °F (2014)
Min Temperature 73 °F 74 °F 73 °F (2008)
Cooling Degree Days 18    
Growing Degree Days 32 (Base 50)    
Moisture  
Dew Point 74 °F    
Average Humidity 83    
Maximum Humidity 94    
Minimum Humidity 51    
Precipitation  
Precipitation 1.28 in - - ()
Sea Level Pressure  
Sea Level Pressure 30.11 in    
Wind  
Wind Speed 11 mph (South)    
Max Wind Speed 25 mph    
Max Gust Speed 29 mph    
Visibility 8 miles    
Events Rain , Thunderstorm    
Averages and records for this station are not official NWS values.
T = Trace of Precipitation, MM = Missing Value Source: NWS Daily Summary

Daily Weather History Graph

Daily Weather History Graph

Search for Another Location

Airport:

Trip Planner

Search our weather history database for the weather conditions in past years. The results will help you decide how hot, cold, wet, or windy it might be!

Date:

Astronomy

Jul. 04, 2014 Rise Set
Actual Time 6:30 AM EDT 8:23 PM EDT
Civil Twilight 6:03 AM EDT 8:49 PM EDT
Nautical Twilight 5:31 AM EDT 9:22 PM EDT
Astronomical Twilight 4:57 AM EDT 9:56 PM EDT
Moon 12:49 PM EDT (7/4) 12:17 AM EDT (7/4)
Length of Visible Light 14h 46m
Length of Day
13h 53m
Waxing Crescent, 42% of the Moon is Illuminated
Jul 4
Waxing Crescent
Jul 5
First Quarter
Jul 12
Full
Jul 18
Last Quarter
Jul 26
New

Hourly Weather History & Observations

Time (EDT) Temp. Heat Index Dew Point Humidity Pressure Visibility Wind Dir Wind Speed Gust Speed Precip Events Conditions
12:58 AM 77.4 °F - 73.8 °F 89% 30.09 in 10.0 mi WSW 6.9 mph - N/A   Clear
1:58 AM 76.8 °F - 73.4 °F 89% 30.08 in 10.0 mi SW 11.5 mph - N/A   Clear
2:58 AM 76.8 °F - 72.9 °F 88% 30.06 in 10.0 mi SW 11.5 mph - N/A   Clear
3:58 AM 76.6 °F - 73.2 °F 89% 30.06 in 10.0 mi SSW 12.7 mph - N/A   Clear
4:58 AM 76.6 °F - 73.2 °F 89% 30.08 in 10.0 mi SSW 12.7 mph - N/A   Clear
5:58 AM 76.6 °F - 72.9 °F 88% 30.09 in 10.0 mi SSW 10.4 mph - N/A   Clear
6:58 AM 77.2 °F - 73.6 °F 89% 30.12 in 10.0 mi WSW 8.1 mph - N/A   Clear
7:58 AM 78.1 °F - 74.7 °F 89% 30.14 in 10.0 mi SW 9.2 mph - N/A   Clear
8:58 AM 80.8 °F 86.9 °F 75.7 °F 85% 30.14 in 10.0 mi SW 9.2 mph - N/A   Clear
9:58 AM 84.6 °F 94.3 °F 76.5 °F 77% 30.14 in 10.0 mi WSW 11.5 mph - N/A   Clear
10:58 AM 87.4 °F 97.7 °F 75.9 °F 68% 30.14 in 10.0 mi West 10.4 mph - N/A   Clear
11:58 AM 88.9 °F 98.1 °F 74.5 °F 62% 30.14 in 10.0 mi WSW 11.5 mph - N/A   Clear
12:58 PM 90.7 °F 97.4 °F 71.4 °F 53% 30.14 in 10.0 mi SW 10.4 mph - N/A   Clear
1:58 PM 92.1 °F 99.4 °F 71.4 °F 51% 30.11 in 10.0 mi West 10.4 mph - N/A   Clear
2:58 PM 88.2 °F 101.2 °F 77.7 °F 71% 30.11 in 10.0 mi ENE 6.9 mph - N/A   Partly Cloudy
3:33 PM 87.8 °F 102.5 °F 78.8 °F 75% 30.09 in 10.0 mi ESE 12.7 mph - N/A Thunderstorm Mostly Cloudy
3:34 PM 87.8 °F 102.5 °F 78.8 °F 75% 30.09 in 10.0 mi ESE 13.8 mph - N/A Thunderstorm Thunderstorm
3:49 PM 86.0 °F 96.9 °F 77.0 °F 74% 30.08 in 10.0 mi ESE 11.5 mph - N/A Thunderstorm Scattered Clouds
3:51 PM 86.0 °F 96.9 °F 77.0 °F 74% 30.08 in 10.0 mi SE 13.8 mph - N/A Thunderstorm Thunderstorm
3:58 PM 84.2 °F 90.9 °F 73.4 °F 70% 30.09 in 10.0 mi SE 17.3 mph - N/A Thunderstorm Thunderstorm
4:06 PM 82.4 °F 87.2 °F 71.6 °F 70% 30.08 in 10.0 mi SE 15.0 mph - N/A Thunderstorm Partly Cloudy
4:14 PM 82.4 °F 88.2 °F 73.4 °F 74% 30.08 in 10.0 mi ESE 12.7 mph - N/A Rain , Thunderstorm Light Rain
4:18 PM 84.2 °F 92.3 °F 75.2 °F 74% 30.09 in 5.0 mi SSE 16.1 mph - N/A Rain , Thunderstorm Light Rain
4:19 PM 84.2 °F 92.3 °F 75.2 °F 74% 30.09 in 2.0 mi SSE 16.1 mph - N/A Rain , Thunderstorm Light Thunderstorms and Rain
4:24 PM 82.4 °F 89.5 °F 75.2 °F 79% 30.09 in 0.8 mi SSE 23.0 mph - N/A Rain , Thunderstorm Heavy Thunderstorms and Rain
4:27 PM 80.6 °F 85.4 °F 73.4 °F 79% 30.10 in 0.8 mi ESE 20.7 mph - N/A Rain , Thunderstorm Heavy Thunderstorms and Rain
4:29 PM 80.6 °F 84.6 °F 71.6 °F 74% 30.10 in 0.5 mi East 16.1 mph - N/A Rain , Thunderstorm Heavy Thunderstorms and Rain
4:32 PM 78.8 °F - 71.6 °F 78% 30.08 in 0.5 mi East 16.1 mph 23.0 mph N/A Rain , Thunderstorm Heavy Thunderstorms and Rain
4:37 PM 77.0 °F - 69.8 °F 78% 30.09 in 0.5 mi East 13.8 mph 23.0 mph N/A Rain , Thunderstorm Light Thunderstorms and Rain
4:42 PM 77.0 °F - 71.6 °F 83% 30.11 in 3.0 mi East 6.9 mph 23.0 mph N/A Rain , Thunderstorm Light Thunderstorms and Rain
4:45 PM 77.0 °F - 71.6 °F 83% 30.11 in 10.0 mi East 6.9 mph - N/A Thunderstorm Thunderstorm
4:58 PM 77.5 °F - 72.5 °F 84% 30.12 in 10.0 mi NE 8.1 mph - 0.71 in Thunderstorm Thunderstorm
4:59 PM 77.0 °F - 71.6 °F 83% 30.12 in 8.0 mi NE 6.9 mph - N/A Rain , Thunderstorm Thunderstorms and Rain
5:04 PM 77.0 °F - 73.4 °F 89% 30.12 in 0.8 mi Variable 2.3 mph - N/A Rain , Thunderstorm Heavy Thunderstorms and Rain
5:09 PM 77.0 °F - 73.4 °F 89% 30.13 in 0.5 mi SSW 18.4 mph 18.4 mph N/A Rain , Thunderstorm Heavy Thunderstorms and Rain
5:14 PM 77.0 °F - 73.4 °F 89% 30.12 in 1.8 mi SSW 25.3 mph 28.8 mph N/A Rain , Thunderstorm Light Thunderstorms and Rain
5:19 PM 77.0 °F - 73.4 °F 89% 30.12 in 10.0 mi SSW 21.9 mph 28.8 mph N/A Rain , Thunderstorm Light Thunderstorms and Rain
5:29 PM 75.2 °F - 73.4 °F 94% 30.12 in 10.0 mi SSW 19.6 mph - N/A Rain , Thunderstorm Light Thunderstorms and Rain
5:30 PM 75.2 °F - 73.4 °F 94% 30.12 in 10.0 mi SSW 19.6 mph - N/A Thunderstorm Thunderstorm
5:32 PM 75.2 °F - 73.4 °F 94% 30.12 in 9.0 mi SW 17.3 mph - N/A Rain , Thunderstorm Light Thunderstorms and Rain
5:37 PM 75.2 °F - 73.4 °F 94% 30.13 in 3.0 mi SSW 15.0 mph - N/A Rain , Thunderstorm Rain
5:42 PM 75.2 °F - 73.4 °F 94% 30.13 in 2.0 mi South 11.5 mph - N/A Rain , Thunderstorm Heavy Rain
5:52 PM 75.2 °F - 71.6 °F 89% 30.15 in 4.0 mi SSW 8.1 mph - N/A Rain , Thunderstorm Rain
5:58 PM 74.3 °F - 72.1 °F 93% 30.17 in 3.0 mi SSW 6.9 mph - 0.47 in Rain , Thunderstorm Heavy Rain
5:59 PM 73.4 °F - 71.6 °F 94% 30.14 in 3.0 mi SSW 6.9 mph - N/A Rain , Thunderstorm Heavy Thunderstorms and Rain
6:24 PM 73.4 °F - 71.6 °F 94% 30.13 in 10.0 mi SSE 4.6 mph - N/A Thunderstorm Light Drizzle
6:31 PM 75.2 °F - 71.6 °F 89% 30.13 in 10.0 mi Calm Calm - N/A Thunderstorm Partly Cloudy
6:58 PM 75.9 °F - 73.2 °F 91% 30.14 in 10.0 mi SE 12.7 mph - 0.07 in   Clear
7:58 PM 76.6 °F - 72.9 °F 88% 30.12 in 10.0 mi South 9.2 mph - 0.03 in   Light Drizzle
8:05 PM 77.0 °F - 73.4 °F 89% 30.10 in 10.0 mi South 8.1 mph - N/A   Clear
8:58 PM 76.5 °F - 72.7 °F 88% 30.11 in 10.0 mi South 9.2 mph - 0.00 in   Clear
9:43 PM 77.0 °F - 73.4 °F 89% 30.10 in 9.0 mi South 8.1 mph - N/A   Clear
9:58 PM 77.4 °F - 73.6 °F 88% 30.12 in 8.0 mi South 4.6 mph - N/A   Clear
10:18 PM 77.0 °F - 73.4 °F 89% 30.11 in 10.0 mi SSW 6.9 mph - N/A   Clear
10:48 PM 77.0 °F - 73.4 °F 89% 30.11 in 9.0 mi South 6.9 mph - N/A   Clear
10:58 PM 77.0 °F - 72.7 °F 86% 30.12 in 10.0 mi South 5.8 mph - N/A   Clear
11:58 PM 76.5 °F - 72.5 °F 87% 30.14 in 10.0 mi South 8.1 mph - N/A   Clear